, TX

(GMT )
Ingleside

Weather History for KTFP - December, 2013

Change the Weather History Date:

Saturday, December 7, 2013

  Actual Average Record
Temperature  
Mean Temperature 36 °F -  
Max Temperature 36 °F - - ()
Min Temperature 35 °F - - ()
Degree Days  
Heating Degree Days 30    
Moisture  
Dew Point 30 °F    
Average Humidity 79    
Maximum Humidity 87    
Minimum Humidity 72    
Precipitation  
Precipitation 0.00 in - - ()
Sea Level Pressure  
Sea Level Pressure 30.35 in    
Wind  
Wind Speed 13 mph (North)    
Max Wind Speed 16 mph    
Max Gust Speed 23 mph    
Visibility 10 miles    
Events      
Averages and records for this station are not official NWS values.
T = Trace of Precipitation, MM = Missing Value Source: NWS Daily Summary

Daily Weather History Graph

Daily Weather History Graph

Search for Another Location

Airport or City:

Trip Planner

Search our weather history database for the weather conditions in past years. The results will help you decide how hot, cold, wet, or windy it might be!

Date:

Astronomy

Dec. 07, 2013 Rise Set
Actual Time 7:07 AM CST 5:33 PM CST
Civil Twilight 6:41 AM CST 5:59 PM CST
Nautical Twilight 6:12 AM CST 6:28 PM CST
Astronomical Twilight 5:44 AM CST 6:56 PM CST
Moon 11:10 AM CST (12/7) 10:56 PM CST (12/7)
Length of Visible Light 11h 17m
Length of Day
10h 26m
Waxing Crescent, 29% of the Moon is Illuminated
Dec 7
Waxing Crescent
Dec 9
First Quarter
Dec 17
Full
Dec 25
Last Quarter
Jan 1
New

Hourly Weather History & Observations

Time (CST) Temp. Windchill Dew Point Humidity Pressure Visibility Wind Dir Wind Speed Gust Speed Precip Events Conditions
12:15 AM 36.5 °F 27.0 °F 29.7 °F 76% 30.37 in 10.0 mi North 16.1 mph 19.6 mph N/A   Clear
12:35 AM 36.5 °F 28.2 °F 29.7 °F 76% 30.38 in 10.0 mi North 12.7 mph - N/A   Scattered Clouds
12:55 AM 36.5 °F 27.4 °F 29.5 °F 76% 30.37 in 10.0 mi North 15.0 mph 20.7 mph N/A   Mostly Cloudy
1:15 AM 36.5 °F 27.0 °F 29.5 °F 76% 30.37 in 10.0 mi North 16.1 mph 19.6 mph N/A   Overcast
1:35 AM 36.5 °F 27.8 °F 29.5 °F 76% 30.36 in 10.0 mi North 13.8 mph 23.0 mph N/A   Overcast
1:55 AM 36.7 °F 28.4 °F 29.7 °F 76% 30.38 in 10.0 mi North 12.7 mph 19.6 mph N/A   Overcast
2:15 AM 36.9 °F 28.2 °F 29.8 °F 76% 30.38 in 10.0 mi North 13.8 mph 18.4 mph N/A   Overcast
2:35 AM 36.9 °F 27.5 °F 29.8 °F 76% 30.38 in 10.0 mi North 16.1 mph 20.7 mph N/A   Overcast
2:55 AM 36.9 °F 29.1 °F 29.7 °F 75% 30.38 in 10.0 mi North 11.5 mph - N/A   Overcast
3:15 AM 36.9 °F 29.1 °F 29.7 °F 75% 30.37 in 10.0 mi North 11.5 mph 16.1 mph N/A   Overcast
3:35 AM 36.7 °F 28.0 °F 29.3 °F 75% 30.37 in 10.0 mi North 13.8 mph 19.6 mph N/A   Overcast
3:55 AM 36.7 °F 28.4 °F 29.3 °F 75% 30.37 in 10.0 mi North 12.7 mph 19.6 mph N/A   Overcast
4:15 AM 36.5 °F 27.8 °F 29.1 °F 75% 30.36 in 10.0 mi North 13.8 mph - N/A   Overcast
4:35 AM 36.7 °F 28.4 °F 29.1 °F 74% 30.37 in 10.0 mi North 12.7 mph - N/A   Overcast
4:55 AM 36.7 °F 28.4 °F 29.3 °F 75% 30.37 in 10.0 mi North 12.7 mph - N/A   Overcast
5:15 AM 36.7 °F 28.4 °F 29.3 °F 75% 30.37 in 10.0 mi North 12.7 mph - N/A   Overcast
5:35 AM 36.7 °F 28.4 °F 29.1 °F 74% 30.37 in 10.0 mi North 12.7 mph 17.3 mph N/A   Overcast
5:55 AM 36.5 °F 28.2 °F 28.9 °F 74% 30.38 in 10.0 mi North 12.7 mph - N/A   Overcast
6:15 AM 36.7 °F 28.9 °F 28.9 °F 74% 30.38 in 10.0 mi North 11.5 mph - N/A   Overcast
6:35 AM 36.7 °F 28.4 °F 28.9 °F 74% 30.39 in 10.0 mi North 12.7 mph - N/A   Overcast
6:55 AM 36.5 °F 28.7 °F 28.8 °F 74% 30.40 in 10.0 mi North 11.5 mph - N/A   Overcast
7:15 AM 36.5 °F 27.8 °F 28.6 °F 73% 30.41 in 10.0 mi North 13.8 mph - N/A   Overcast
7:35 AM 36.5 °F 28.7 °F 28.8 °F 74% 30.41 in 10.0 mi North 11.5 mph - N/A   Overcast
7:55 AM 36.5 °F 28.7 °F 28.6 °F 73% 30.42 in 10.0 mi North 11.5 mph - N/A   Overcast
8:15 AM 36.3 °F 28.4 °F 28.4 °F 73% 30.43 in 10.0 mi North 11.5 mph 17.3 mph N/A   Overcast
8:35 AM 36.5 °F 28.7 °F 28.6 °F 73% 30.42 in 10.0 mi North 11.5 mph - N/A   Overcast
8:55 AM 36.5 °F 28.2 °F 28.6 °F 73% 30.42 in 10.0 mi North 12.7 mph 17.3 mph N/A   Overcast
9:15 AM 36.5 °F 28.7 °F 28.6 °F 73% 30.42 in 10.0 mi NNW 11.5 mph - N/A   Overcast
9:35 AM 36.5 °F 28.2 °F 28.4 °F 72% 30.43 in 10.0 mi North 12.7 mph 17.3 mph N/A   Overcast
9:55 AM 36.5 °F 29.2 °F 28.2 °F 72% 30.43 in 10.0 mi North 10.4 mph - N/A   Overcast
10:15 AM 36.1 °F 27.3 °F 28.6 °F 74% 30.43 in 10.0 mi NNW 13.8 mph - N/A   Overcast
10:35 AM 36.0 °F 28.5 °F 28.9 °F 76% 30.43 in 10.0 mi NNW 10.4 mph - N/A   Overcast
10:55 AM 36.0 °F 27.1 °F 29.3 °F 77% 30.43 in 10.0 mi North 13.8 mph 17.3 mph N/A   Overcast
11:15 AM 36.3 °F 28.4 °F 29.7 °F 77% 30.43 in 10.0 mi North 11.5 mph - N/A   Overcast
11:35 AM 36.7 °F 28.4 °F 30.0 °F 77% 30.42 in 10.0 mi North 12.7 mph - N/A   Overcast
11:55 AM 36.5 °F 29.2 °F 30.2 °F 78% 30.41 in 10.0 mi NNW 10.4 mph - N/A   Overcast
12:15 PM 36.5 °F 28.7 °F 30.2 °F 78% 30.40 in 10.0 mi North 11.5 mph - N/A   Overcast
12:35 PM 36.5 °F 28.2 °F 30.4 °F 78% 30.38 in 10.0 mi North 12.7 mph - N/A   Overcast
12:55 PM 36.5 °F 28.2 °F 30.4 °F 78% 30.37 in 10.0 mi North 12.7 mph - N/A   Overcast
1:15 PM 36.5 °F 28.7 °F 30.6 °F 79% 30.36 in 10.0 mi NNW 11.5 mph - N/A   Overcast
1:35 PM 36.5 °F 28.7 °F 30.6 °F 79% 30.35 in 10.0 mi North 11.5 mph - N/A   Overcast
1:55 PM 36.9 °F 29.1 °F 30.4 °F 77% 30.34 in 10.0 mi North 11.5 mph - N/A   Overcast
2:15 PM 36.7 °F 29.4 °F 30.7 °F 79% 30.33 in 10.0 mi North 10.4 mph - N/A   Overcast
2:35 PM 36.7 °F 29.9 °F 30.9 °F 80% 30.32 in 10.0 mi North 9.2 mph - N/A   Overcast
2:55 PM 36.5 °F 28.7 °F 30.9 °F 80% 30.31 in 10.0 mi North 11.5 mph - N/A   Overcast
3:15 PM 36.5 °F 29.2 °F 31.1 °F 81% 30.30 in 10.0 mi North 10.4 mph - N/A   Overcast
3:35 PM 36.5 °F 28.2 °F 31.1 °F 81% 30.30 in 10.0 mi North 12.7 mph - N/A   Overcast
3:55 PM 36.3 °F 30.1 °F 31.5 °F 83% 30.29 in 10.0 mi North 8.1 mph - N/A   Overcast
4:15 PM 36.1 °F 28.7 °F 31.6 °F 84% 30.28 in 10.0 mi North 10.4 mph - N/A   Overcast
4:35 PM 36.0 °F 28.0 °F 31.8 °F 85% 30.28 in 10.0 mi North 11.5 mph - N/A   Overcast
4:55 PM 35.8 °F 28.3 °F 31.8 °F 86% 30.29 in 10.0 mi North 10.4 mph - N/A   Overcast
5:15 PM 35.8 °F 28.8 °F 31.8 °F 86% 30.29 in 10.0 mi North 9.2 mph - N/A   Overcast
5:35 PM 35.8 °F 28.3 °F 32.0 °F 86% 30.29 in 10.0 mi North 10.4 mph - N/A   Overcast
5:55 PM 36.0 °F 28.0 °F 32.0 °F 86% 30.29 in 10.0 mi NNW 11.5 mph - N/A   Overcast
6:15 PM 35.8 °F 28.8 °F 31.8 °F 86% 30.31 in 10.0 mi NNW 9.2 mph - N/A   Overcast
6:35 PM 35.6 °F 28.0 °F 32.0 °F 87% 30.30 in 10.0 mi North 10.4 mph - N/A   Overcast
6:55 PM 35.6 °F 28.0 °F 32.0 °F 87% 30.31 in 10.0 mi North 10.4 mph - N/A   Overcast
7:15 PM 35.6 °F 27.5 °F 32.0 °F 87% 30.31 in 10.0 mi North 11.5 mph - N/A   Overcast
7:35 PM 35.6 °F 27.5 °F 32.0 °F 87% 30.31 in 10.0 mi North 11.5 mph - N/A   Overcast
7:55 PM 35.8 °F 28.8 °F 32.0 °F 86% 30.31 in 10.0 mi North 9.2 mph - N/A   Overcast
8:15 PM 35.8 °F 28.3 °F 32.0 °F 86% 30.32 in 10.0 mi North 10.4 mph - N/A   Overcast
8:35 PM 36.0 °F 28.0 °F 31.8 °F 85% 30.31 in 10.0 mi North 11.5 mph - N/A   Overcast
8:55 PM 35.8 °F 27.8 °F 31.8 °F 86% 30.31 in 10.0 mi North 11.5 mph - N/A   Overcast
9:15 PM 35.8 °F 28.8 °F 31.8 °F 86% 30.31 in 10.0 mi North 9.2 mph - N/A   Overcast
9:35 PM 36.1 °F 28.2 °F 32.0 °F 85% 30.31 in 10.0 mi North 11.5 mph - N/A   Overcast
9:55 PM 36.1 °F 29.3 °F 32.0 °F 85% 30.31 in 10.0 mi North 9.2 mph - N/A   Overcast
10:15 PM 36.1 °F 28.7 °F 32.0 °F 85% 30.31 in 10.0 mi North 10.4 mph - N/A   Overcast
10:35 PM 36.0 °F 28.5 °F 32.0 °F 86% 30.30 in 10.0 mi North 10.4 mph - N/A   Overcast
10:55 PM 36.0 °F 28.5 °F 31.8 °F 85% 30.31 in 10.0 mi North 10.4 mph - N/A   Overcast
11:15 PM 36.0 °F 28.0 °F 32.0 °F 86% 30.31 in 10.0 mi North 11.5 mph - N/A   Overcast
11:35 PM 36.0 °F 28.5 °F 32.0 °F 86% 30.28 in 10.0 mi North 10.4 mph - N/A   Overcast
11:55 PM 35.8 °F 28.8 °F 32.0 °F 86% 30.28 in 10.0 mi North 9.2 mph - N/A   Overcast